Aérodrome :
LOGIN :

S'inscrire | Disclaimer

   EN    FR    IT 

 










Légende :    VFR   VFR Marginal   IFR   IFR Intensif   IFR Très Intensif
Visi : 
Plafond : 
>= 8 km
>= 3000ft
5 à 8 km
1000 à 3000 ft
1500m à 5 km
500 à 1000 ft
800 à 1500m
200 à 500 ft
< 800m
< 200 ft
Symboles :   Orages  Brouillard  Fortes neiges  Fortes précipitations  Vent > 20 kt
SIGMETs :   Divers  Orages  Givrage  Turbulence  Onde Orograph.  Cendres Volcan.







- Altitude de l'aérodrome : 36 ft
- Code IATA : LTQ
- Voir les cartes d'approche


LFAT - Le Touquet

DERNIER METAR :
  • 231730Z AUTO 29008KT CAVOK 15/08 Q1028 NOSIG

METARs EXPIRÉS :
  • 231700Z AUTO 28007KT 250V320 CAVOK 15/08 Q1028 NOSIG
  • 231630Z AUTO 28005KT 240V310 CAVOK 14/09 Q1028 NOSIG
  • 231600Z AUTO 29006KT 240V330 CAVOK 14/09 Q1028 NOSIG
  • 231530Z AUTO 29008KT 240V330 CAVOK 15/08 Q1028 NOSIG
  • 231500Z AUTO 29009KT CAVOK 15/08 Q1028 NOSIG

TAF TAF LFAT
Valide du 23 à 15h jusqu'au 24 à 00h UTC


231400Z 2315/2324 29008KT CAVOK
BECMG 2321/2323 BKN012
ATIS : +33 3 21 06 62 84
Pas de NOTAMs connus pour ce terrain.



MET'MAP, la Météo Aéronautique d'un coup d'oeil ! - Copyright ORBIFLY Décembre 2007 - Disclaimer

ORBIFLY MET'MAP TEAM :

Programmation & Développement : Alexandra Zaïnal
Conception & Développement : Baudouin d'Aumeries
Co-Programmation & Développement : Marc-Olivier Méhu
Soutien technique & logistique : Manuel Goepfert

Contact : metmap@orbifly.com




SOURCES & CREDITS :

   NOAA